Home   Weather   Hanoi   Past weeks
Flag for Vietnam

Past Weather in Hanoi, Vietnam — Yesterday and Last 2 Weeks

Now
72 °F

Passing clouds.


Feels Like: 77 °F
Forecast: 56 / 74 °F
Wind: 3 mph from Northwest

Location: Ha Noi Airport

Current Time: Dec 17, 2018 at 4:50:02 pm

Latest Report: Dec 17, 2018 at 4:00 pm


Visibility: N/A

Pressure: 30.12 "Hg

Humidity: 50%

Dew Point: 52 °F

Location of HanoiLocation

Past Weather in Hanoi — Graph

°F

Hanoi Temperature Yesterday

Maximum temperature yesterday: 66 °F (at 12:30 pm)
Minimum temperature yesterday: 59 °F (at 10:30 pm)
Average temperature yesterday: 62 °F

High & Low Weather Summary for the Past Weeks

 TemperatureHumidityPressure
High86 °F (Dec 3, 1:00 pm)100% (Dec 2, 11:30 pm)30.39 "Hg (Dec 2, 11:30 pm)
Low52 °F (Dec 12, 7:00 am)44% (Dec 17, 2:00 pm)29.83 "Hg (Dec 2, 3:00 pm)
Average66 °F78%30.12 "Hg
* Reported Dec 2 3:00 pm — Dec 17 3:30 pm, Hanoi. Weather by CustomWeather, © 2018

Note: Actual official high and low records may vary slightly from our data, if they occured in-between our weather recording intervals... More about our weather records

Advertising

Hanoi Weather History for the Previous 24 Hours

Scroll right to see more
 ConditionsComfort  
Time TempWeatherWind HumidityBarometerVisibility
3:30 pm
Mon, Dec 17
72 °FPassing clouds.3 mph50%30.12 "HgN/A
3:00 pm73 °FSunny.3 mph47%30.12 "Hg10 mi
2:30 pm73 °FSunny.5 mph44%30.12 "Hg10 mi
2:00 pm73 °FPassing clouds.7 mph44%30.15 "HgN/A
1:30 pm72 °FPassing clouds.7 mph47%30.15 "HgN/A
1:00 pm72 °FSunny.6 mph47%30.18 "Hg10 mi
12:30 pm70 °FPassing clouds.7 mph46%30.21 "HgN/A
12:00 pm70 °FPassing clouds.7 mph46%30.21 "HgN/A
11:30 am68 °FPassing clouds.8 mph49%30.24 "HgN/A
11:00 am70 °FPassing clouds.9 mph46%30.27 "HgN/A
10:30 am68 °FPassing clouds.10 mph49%30.30 "HgN/A
10:00 am68 °FPassing clouds.12 mph49%30.30 "HgN/A
9:30 am66 °FSunny.10 mph52%30.30 "Hg10 mi
9:00 am66 °FSunny.7 mph52%30.30 "Hg10 mi
8:30 am64 °FPassing clouds.3 mph60%30.30 "HgN/A
8:00 am63 °FClear.2 mph59%30.27 "Hg5 mi
7:30 am61 °FPassing clouds.3 mph63%30.27 "HgN/A
7:00 am61 °FSunny.5 mph59%30.27 "Hg10 mi
6:30 am61 °FSunny.3 mph59%30.27 "Hg10 mi
6:00 am59 °FPassing clouds.5 mph63%30.27 "HgN/A
5:30 am59 °FClear.6 mph68%30.24 "Hg10 mi
5:00 am59 °FClear.6 mph68%30.24 "Hg10 mi
4:30 am59 °FClear.8 mph68%30.21 "Hg10 mi
4:00 am59 °FClear.5 mph68%30.21 "Hg10 mi
3:30 am59 °FClear.6 mph68%30.21 "Hg10 mi
3:00 am59 °FClear.6 mph68%30.21 "Hg10 mi
2:30 am59 °FClear.7 mph72%30.21 "Hg10 mi
2:00 am59 °FClear.7 mph82%30.24 "Hg10 mi
1:30 am57 °FClear.5 mph88%30.24 "Hg10 mi
1:00 am57 °FClear.5 mph88%30.24 "Hg10 mi
12:30 am57 °FClear.2 mph94%30.24 "Hg10 mi
12:00 am57 °FClear.2 mph88%30.24 "Hg10 mi
11:30 pm
Sun, Dec 16
59 °FClear.3 mph82%30.27 "Hg10 mi
11:00 pm59 °FClear.2 mph77%30.27 "Hg10 mi
10:30 pm59 °FClear.3 mph82%30.27 "Hg6 mi
10:00 pm61 °FClear.3 mph77%30.27 "Hg5 mi
9:30 pm61 °FClear.5 mph77%30.27 "Hg4 mi
9:00 pm63 °FClear.3 mph68%30.27 "Hg10 mi
8:30 pm63 °FClear.2 mph68%30.24 "Hg10 mi
8:00 pm63 °FClear.2 mph68%30.24 "Hg10 mi
7:30 pm63 °FClear.3 mph68%30.24 "Hg10 mi
7:00 pm63 °FClear.3 mph68%30.24 "Hg10 mi
6:30 pm63 °FClear.3 mph64%30.21 "Hg10 mi
6:00 pm63 °FPassing clouds.5 mph68%30.21 "HgN/A
5:30 pm63 °FPassing clouds.5 mph64%30.21 "HgN/A
5:00 pm64 °FSunny.7 mph64%30.21 "Hg10 mi
4:30 pm64 °FPassing clouds.6 mph64%30.21 "HgN/A
4:00 pm64 °FPassing clouds.6 mph64%30.21 "HgN/A
Weather by CustomWeather, © 2018

See weather overview